EN

Hourly Weather La Esperanza

Today, 25 July, Sunday

Time Temperature Precipitation Wind Pressure Humidity
00:00 +26°C° 0.7 mm 1 mps 750 mmHg 88%
01:00 +26°C° 0 mm 1 mps 750 mmHg 90%
02:00 +26°C° 0.7 mm 1 mps 750 mmHg 92%
03:00 +25°C° 0.7 mm 1 mps 750 mmHg 94%
04:00 +25°C° 0.7 mm 1 mps 750 mmHg 96%
05:00 +25°C° 0.2 mm 1 mps 750 mmHg 95%
06:00 +26°C° 0.2 mm 1 mps 750 mmHg 94%
07:00 +24°C° 0 mm 0 mps 750 mmHg 94%
08:00 +25°C° 0.1 mm 0 mps 751 mmHg 87%
09:00 +27°C° 0.1 mm 0 mps 751 mmHg 80%
10:00 +28°C° 0.1 mm 0 mps 751 mmHg 73%
11:00 +31°C° 0.1 mm 1 mps 750 mmHg 67%
12:00 +32°C° 0.1 mm 1 mps 750 mmHg 61%
13:00 +34°C° 0.1 mm 1 mps 749 mmHg 55%
14:00 +33°C° 0.4 mm 1 mps 749 mmHg 60%
15:00 +32°C° 0.4 mm 2 mps 748 mmHg 65%
16:00 +32°C° 0.4 mm 2 mps 748 mmHg 70%
17:00 +30°C° 1.1 mm 1 mps 748 mmHg 77%
18:00 +28°C° 1.1 mm 1 mps 749 mmHg 83%
19:00 +27°C° 1.1 mm 1 mps 749 mmHg 89%
20:00 +25°C° 2.5 mm 0 mps 750 mmHg 92%
21:00 +24°C° 2.5 mm 0 mps 751 mmHg 94%
22:00 +24°C° 2.5 mm 0 mps 751 mmHg 97%
23:00 +24°C° 0.9 mm 0 mps 751 mmHg 96%

Tomorrow, 26 July, Monday

Time Temperature Precipitation Wind Pressure Humidity
00:00 +24°C° 0.9 mm 0 mps 751 mmHg 96%
01:00 +25°C° 0.9 mm 1 mps 750 mmHg 96%
02:00 +25°C° 0.8 mm 1 mps 750 mmHg 96%
03:00 +25°C° 0.8 mm 1 mps 750 mmHg 96%
04:00 +25°C° 0.8 mm 1 mps 750 mmHg 96%
05:00 +25°C° 0.1 mm 1 mps 750 mmHg 95%
06:00 +24°C° 0.1 mm 0 mps 751 mmHg 93%
07:00 +24°C° 0.1 mm 0 mps 751 mmHg 92%
08:00 +28°C° 0.3 mm 1 mps 751 mmHg 83%
09:00 +30°C° 0.3 mm 1 mps 751 mmHg 75%
10:00 +31°C° 0.3 mm 1 mps 751 mmHg 67%
11:00 +32°C° 0.5 mm 1 mps 750 mmHg 65%
12:00 +33°C° 0.5 mm 1 mps 750 mmHg 63%
13:00 +33°C° 0.5 mm 1 mps 749 mmHg 61%
14:00 +33°C° 1 mm 1 mps 749 mmHg 66%
15:00 +32°C° 1 mm 1 mps 748 mmHg 71%
16:00 +29°C° 1 mm 0 mps 748 mmHg 77%
17:00 +29°C° 1.2 mm 1 mps 748 mmHg 82%
18:00 +28°C° 1.2 mm 1 mps 749 mmHg 87%
19:00 +27°C° 1.2 mm 1 mps 749 mmHg 93%
20:00 +26°C° 4.8 mm 1 mps 750 mmHg 94%
21:00 +26°C° 4.8 mm 1 mps 751 mmHg 96%
22:00 +26°C° 4.8 mm 1 mps 751 mmHg 97%
23:00 +25°C° 1.8 mm 1 mps 751 mmHg 97%

Day after tomorrow, 27 July, Tuesday

Time Temperature Precipitation Wind Pressure Humidity
00:00 +25°C° 1.8 mm 1 mps 751 mmHg 97%
01:00 +25°C° 1.8 mm 1 mps 750 mmHg 97%
02:00 +25°C° 0 mm 1 mps 750 mmHg 96%
03:00 +25°C° 0 mm 1 mps 750 mmHg 96%
04:00 +25°C° 0 mm 1 mps 750 mmHg 96%
05:00 +25°C° 0 mm 1 mps 750 mmHg 95%
06:00 +25°C° 0 mm 1 mps 751 mmHg 94%
07:00 +23°C° 0 mm 0 mps 751 mmHg 93%
08:00 +26°C° 0 mm 1 mps 751 mmHg 89%
09:00 +27°C° 0 mm 1 mps 751 mmHg 84%
10:00 +28°C° 0 mm 1 mps 751 mmHg 80%
11:00 +29°C° 0 mm 1 mps 751 mmHg 75%
12:00 +30°C° 0 mm 1 mps 750 mmHg 69%
13:00 +29°C° 0 mm 0 mps 750 mmHg 64%
14:00 +29°C° 0 mm 0 mps 749 mmHg 65%
15:00 +29°C° 0 mm 0 mps 749 mmHg 66%
16:00 +29°C° 0 mm 0 mps 748 mmHg 66%
17:00 +27°C° 0.1 mm 0 mps 749 mmHg 72%
18:00 +28°C° 0.1 mm 1 mps 749 mmHg 77%
19:00 +27°C° 0.1 mm 1 mps 749 mmHg 83%
20:00 +26°C° 0 mm 1 mps 750 mmHg 83%
21:00 +26°C° 0 mm 1 mps 750 mmHg 82%
22:00 +26°C° 0 mm 1 mps 751 mmHg 82%
23:00 +25°C° 0.1 mm 1 mps 750 mmHg 83%

28 July, Wednesday

Time Temperature Precipitation Wind Pressure Humidity
00:00 +25°C° 0.1 mm 1 mps 750 mmHg 83%
01:00 +25°C° 0.1 mm 1 mps 750 mmHg 84%
02:00 +23°C° 0.2 mm 0 mps 750 mmHg 85%
03:00 +23°C° 0.2 mm 0 mps 750 mmHg 86%
04:00 +22°C° 0.2 mm 0 mps 750 mmHg 87%
05:00 +23°C° 0.1 mm 0 mps 750 mmHg 87%
06:00 +23°C° 0.1 mm 0 mps 751 mmHg 86%
07:00 +23°C° 0.1 mm 0 mps 751 mmHg 85%
08:00 +24°C° 0.1 mm 0 mps 751 mmHg 82%
09:00 +25°C° 0.1 mm 0 mps 751 mmHg 78%
10:00 +28°C° 0.1 mm 1 mps 751 mmHg 75%
11:00 +28°C° 0.1 mm 1 mps 751 mmHg 75%
12:00 +28°C° 0.1 mm 1 mps 750 mmHg 76%
13:00 +28°C° 0.1 mm 1 mps 750 mmHg 76%
14:00 +28°C° 0 mm 1 mps 749 mmHg 74%
15:00 +29°C° 0 mm 1 mps 749 mmHg 71%
16:00 +29°C° 0 mm 1 mps 748 mmHg 69%
17:00 +28°C° 0 mm 1 mps 748 mmHg 72%
18:00 +28°C° 0 mm 1 mps 749 mmHg 74%
19:00 +27°C° 0 mm 1 mps 749 mmHg 77%
20:00 +26°C° 0 mm 1 mps 749 mmHg 77%
21:00 +26°C° 0 mm 1 mps 750 mmHg 78%
22:00 +25°C° 0 mm 1 mps 750 mmHg 79%
23:00 +25°C° 0 mm 1 mps 750 mmHg 78%

29 July, Thursday

Time Temperature Precipitation Wind Pressure Humidity
00:00 +25°C° 0 mm 1 mps 750 mmHg 78%
01:00 +25°C° 0 mm 1 mps 750 mmHg 78%
02:00 +25°C° 0 mm 1 mps 750 mmHg 77%
03:00 +25°C° 0 mm 1 mps 750 mmHg 77%
04:00 +25°C° 0 mm 1 mps 750 mmHg 77%
05:00 +25°C° 0 mm 1 mps 750 mmHg 76%
06:00 +24°C° 0 mm 0 mps 751 mmHg 74%
07:00 +24°C° 0 mm 0 mps 751 mmHg 73%
08:00 +27°C° 0 mm 0 mps 751 mmHg 65%
09:00 +31°C° 0 mm 1 mps 751 mmHg 58%
10:00 +33°C° 0 mm 1 mps 751 mmHg 51%
11:00 +33°C° 0 mm 1 mps 750 mmHg 50%
12:00 +34°C° 0 mm 1 mps 749 mmHg 49%
13:00 +36°C° 0 mm 2 mps 749 mmHg 47%
14:00 +36°C° 0.1 mm 2 mps 748 mmHg 49%
15:00 +34°C° 0.1 mm 1 mps 748 mmHg 50%
16:00 +34°C° 0.1 mm 1 mps 747 mmHg 51%
17:00 +32°C° 0.1 mm 1 mps 748 mmHg 60%
18:00 +30°C° 0.1 mm 1 mps 749 mmHg 68%
19:00 +28°C° 0.1 mm 1 mps 749 mmHg 77%
20:00 +27°C° 0.2 mm 1 mps 750 mmHg 79%
21:00 +26°C° 0.2 mm 1 mps 751 mmHg 81%
22:00 +25°C° 0.2 mm 1 mps 751 mmHg 83%
23:00 +25°C° 0.4 mm 1 mps 751 mmHg 84%

30 July, Friday

Time Temperature Precipitation Wind Pressure Humidity
00:00 +25°C° 0.4 mm 1 mps 751 mmHg 85%
01:00 +25°C° 0.4 mm 1 mps 750 mmHg 85%
02:00 +25°C° 0 mm 1 mps 750 mmHg 85%
03:00 +24°C° 0 mm 1 mps 750 mmHg 84%
04:00 +24°C° 0 mm 1 mps 750 mmHg 84%
05:00 +25°C° 0 mm 1 mps 750 mmHg 81%
06:00 +26°C° 0 mm 1 mps 751 mmHg 77%
07:00 +27°C° 0 mm 1 mps 751 mmHg 74%
08:00 +29°C° 0 mm 1 mps 751 mmHg 65%
09:00 +32°C° 0 mm 1 mps 751 mmHg 56%
10:00 +34°C° 0 mm 1 mps 751 mmHg 47%
11:00 +35°C° 0 mm 1 mps 750 mmHg 45%
12:00 +37°C° 0 mm 2 mps 749 mmHg 43%
13:00 +38°C° 0 mm 2 mps 748 mmHg 42%
14:00 +37°C° 0.1 mm 2 mps 748 mmHg 45%
15:00 +36°C° 0.1 mm 2 mps 748 mmHg 48%
16:00 +36°C° 0.1 mm 2 mps 748 mmHg 51%
17:00 +34°C° 0.4 mm 2 mps 748 mmHg 60%
18:00 +31°C° 0.4 mm 1 mps 749 mmHg 69%
19:00 +28°C° 0.4 mm 1 mps 750 mmHg 78%
20:00 +27°C° 1.1 mm 1 mps 750 mmHg 83%
21:00 +26°C° 1.1 mm 1 mps 751 mmHg 87%
22:00 +25°C° 1.1 mm 1 mps 751 mmHg 91%
23:00 +25°C° 0.4 mm 1 mps 751 mmHg 91%
Show more